QPF
0.00 0.01 0.04 0.08 0.13 0.10 0.05 0.04 0.03 0.02 0.02 0.02 0.02 0.03 0.03 0.03 0.03 0.02 0.02 0.02 0.02 0.04 0.06 0.08 0.09 0.09 0.08 0.06 0.05 0.04 0.03 0.03 0.04 0.04 0.03 0.03 0.04 0.04 0.04 0.04 0.04 0.06 0.07
0.01 0.01 0.04 0.08 0.17 0.14 0.06 0.04 0.03 0.02 0.03 0.03 0.03 0.02 0.03 0.03 0.02 0.02 0.02 0.02 0.02 0.04 0.06 0.08 0.08 0.09 0.08 0.06 0.05 0.04 0.04 0.04 0.04 0.03 0.02 0.02 0.03 0.03 0.03 0.04 0.05 0.08 0.06
0.00 0.01 0.02 0.04 0.10 0.10 0.07 0.05 0.04 0.03 0.03 0.03 0.03 0.03 0.03 0.03 0.02 0.02 0.02 0.02 0.03 0.04 0.05 0.09 0.14 0.13 0.09 0.08 0.07 0.06 0.06 0.05 0.04 0.02 0.02 0.03 0.04 0.04 0.03 0.04 0.06 0.06 0.05
0.00 0.01 0.01 0.03 0.04 0.05 0.06 0.05 0.04 0.03 0.03 0.03 0.04 0.04 0.04 0.03 0.03 0.03 0.03 0.03 0.04 0.05 0.06 0.09 0.13 0.15 0.13 0.11 0.09 0.07 0.06 0.05 0.04 0.02 0.03 0.04 0.05 0.06 0.05 0.04 0.05 0.04 0.05
0.00 0.01 0.02 0.03 0.03 0.04 0.05 0.05 0.04 0.03 0.03 0.03 0.04 0.04 0.05 0.04 0.03 0.04 0.04 0.05 0.06 0.06 0.06 0.07 0.08 0.10 0.12 0.10 0.09 0.07 0.04 0.04 0.05 0.05 0.05 0.04 0.05 0.07 0.05 0.04 0.05 0.05 0.06
0.01 0.01 0.01 0.03 0.03 0.04 0.04 0.06 0.05 0.04 0.03 0.03 0.04 0.04 0.05 0.06 0.06 0.06 0.07 0.08 0.08 0.08 0.06 0.05 0.05 0.05 0.06 0.06 0.07 0.07 0.05 0.05 0.06 0.07 0.07 0.05 0.05 0.07 0.06 0.06 0.07 0.06 0.06
0.01 0.01 0.01 0.03 0.03 0.04 0.05 0.05 0.05 0.05 0.04 0.04 0.05 0.05 0.04 0.07 0.08 0.09 0.10 0.08 0.07 0.08 0.07 0.06 0.04 0.04 0.04 0.05 0.06 0.07 0.05 0.05 0.07 0.08 0.07 0.06 0.06 0.07 0.08 0.07 0.07 0.06 0.05
0.00 0.01 0.02 0.03 0.03 0.04 0.04 0.04 0.05 0.05 0.05 0.05 0.05 0.05 0.06 0.09 0.10 0.09 0.09 0.07 0.06 0.06 0.07 0.07 0.05 0.03 0.02 0.03 0.03 0.04 0.03 0.05 0.06 0.06 0.05 0.05 0.05 0.07 0.09 0.09 0.07 0.06 0.06
0.00 0.01 0.02 0.03 0.04 0.05 0.05 0.04 0.05 0.05 0.05 0.05 0.06 0.06 0.06 0.07 0.10 0.09 0.09 0.07 0.06 0.05 0.06 0.05 0.04 0.03 0.02 0.02 0.02 0.02 0.03 0.05 0.05 0.05 0.05 0.05 0.06 0.07 0.07 0.07 0.07 0.07 0.09
0.00 0.01 0.02 0.03 0.04 0.06 0.07 0.06 0.06 0.05 0.06 0.06 0.05 0.06 0.06 0.08 0.08 0.08 0.08 0.05 0.04 0.04 0.04 0.04 0.03 0.02 0.02 0.01 0.02 0.02 0.03 0.04 0.07 0.05 0.05 0.07 0.07 0.07 0.08 0.08 0.07 0.07 0.09
0.01 0.01 0.02 0.03 0.04 0.06 0.08 0.08 0.06 0.04 0.05 0.05 0.05 0.07 0.05 0.07 0.06 0.05 0.05 0.04 0.04 0.03 0.03 0.04 0.04 0.03 0.02 0.02 0.03 0.03 0.03 0.02 0.05 0.07 0.07 0.08 0.08 0.09 0.10 0.09 0.09 0.08 0.08
0.01 0.01 0.02 0.02 0.04 0.07 0.07 0.09 0.10 0.07 0.05 0.05 0.05 0.07 0.06 0.06 0.04 0.03 0.04 0.03 0.04 0.03 0.03 0.03 0.04 0.03 0.03 0.03 0.03 0.02 0.02 0.02 0.04 0.05 0.07 0.09 0.10 0.11 0.09 0.08 0.08 0.08 0.08
0.01 0.01 0.01 0.03 0.05 0.07 0.09 0.10 0.12 0.11 0.08 0.05 0.05 0.07 0.07 0.06 0.04 0.03 0.02 0.03 0.03 0.03 0.02 0.02 0.03 0.03 0.02 0.03 0.03 0.02 0.02 0.02 0.02 0.02 0.03 0.05 0.06 0.08 0.08 0.06 0.05 0.06 0.06
0.01 0.01 0.01 0.02 0.04 0.06 0.09 0.12 0.14 0.14 0.10 0.06 0.05 0.06 0.06 0.04 0.03 0.03 0.02 0.02 0.02 0.01 0.01 0.01 0.02 0.03 0.03 0.03 0.03 0.03 0.02 0.02 0.02 0.02 0.02 0.02 0.03 0.05 0.06 0.06 0.05 0.05 0.05
0.01 0.01 0.02 0.02 0.02 0.04 0.06 0.10 0.14 0.15 0.13 0.08 0.05 0.05 0.04 0.03 0.02 0.02 0.02 0.02 0.02 0.02 0.02 0.01 0.01 0.02 0.03 0.03 0.03 0.03 0.03 0.02 0.01 0.02 0.02 0.02 0.02 0.04 0.07 0.08 0.09 0.07 0.07
0.01 0.01 0.02 0.02 0.03 0.03 0.05 0.08 0.11 0.14 0.14 0.10 0.06 0.04 0.04 0.02 0.02 0.02 0.02 0.02 0.02 0.02 0.02 0.02 0.01 0.01 0.02 0.04 0.03 0.03 0.03 0.02 0.01 0.01 0.01 0.02 0.02 0.03 0.05 0.07 0.09 0.11 0.09
0.01 0.01 0.01 0.02 0.02 0.03 0.04 0.06 0.09 0.12 0.13 0.12 0.08 0.06 0.05 0.04 0.03 0.02 0.02 0.02 0.02 0.02 0.02 0.02 0.02 0.02 0.02 0.03 0.04 0.03 0.03 0.02 0.02 0.01 0.01 0.02 0.02 0.02 0.03 0.04 0.04 0.05 0.06
0.01 0.02 0.02 0.02 0.02 0.02 0.04 0.06 0.08 0.10 0.12 0.11 0.10 0.08 0.07 0.06 0.06 0.05 0.04 0.03 0.02 0.02 0.02 0.03 0.03 0.03 0.02 0.02 0.03 0.03 0.02 0.02 0.02 0.01 0.01 0.01 0.02 0.02 0.02 0.03 0.04 0.04 0.04
0.01 0.01 0.02 0.02 0.02 0.03 0.04 0.06 0.08 0.10 0.11 0.11 0.10 0.09 0.07 0.07 0.07 0.06 0.06 0.05 0.04 0.04 0.04 0.04 0.04 0.05 0.04 0.03 0.03 0.03 0.02 0.02 0.01 0.01 0.01 0.01 0.01 0.01 0.02 0.02 0.03 0.05 0.05
0.02 0.02 0.01 0.02 0.03 0.03 0.03 0.05 0.07 0.09 0.09 0.10 0.10 0.09 0.07 0.07 0.07 0.07 0.05 0.06 0.06 0.06 0.07 0.07 0.06 0.05 0.05 0.04 0.04 0.04 0.03 0.03 0.02 0.02 0.01 0.01 0.01 0.01 0.01 0.02 0.02 0.02 0.04
0.03 0.03 0.03 0.02 0.03 0.04 0.03 0.04 0.05 0.08 0.08 0.08 0.08 0.08 0.08 0.06 0.07 0.07 0.06 0.05 0.05 0.05 0.05 0.06 0.06 0.05 0.05 0.05 0.05 0.05 0.05 0.04 0.04 0.03 0.02 0.01 0.01 0.01 0.01 0.01 0.02 0.01 0.02
0.04 0.04 0.04 0.03 0.03 0.04 0.03 0.03 0.04 0.07 0.08 0.07 0.07 0.07 0.06 0.06 0.06 0.05 0.05 0.05 0.05 0.05 0.05 0.04 0.04 0.04 0.04 0.04 0.05 0.05 0.05 0.06 0.06 0.04 0.03 0.02 0.02 0.01 0.01 0.01 0.01 0.01 0.01
0.04 0.04 0.04 0.04 0.03 0.03 0.03 0.03 0.04 0.07 0.08 0.07 0.06 0.06 0.05 0.05 0.05 0.05 0.04 0.04 0.04 0.04 0.04 0.04 0.03 0.02 0.02 0.02 0.03 0.05 0.05 0.05 0.05 0.05 0.04 0.03 0.02 0.02 0.02 0.01 0.01 0.01 0.01
0.05 0.04 0.04 0.04 0.04 0.03 0.04 0.05 0.05 0.06 0.07 0.06 0.05 0.04 0.04 0.04 0.04 0.04 0.04 0.04 0.03 0.04 0.05 0.04 0.03 0.03 0.03 0.02 0.01 0.03 0.04 0.04 0.04 0.04 0.04 0.03 0.03 0.02 0.02 0.02 0.02 0.01 0.01
0.05 0.05 0.03 0.03 0.04 0.04 0.04 0.04 0.06 0.06 0.07 0.06 0.05 0.04 0.03 0.03 0.03 0.04 0.05 0.04 0.04 0.04 0.04 0.04 0.04 0.03 0.03 0.03 0.02 0.02 0.03 0.04 0.04 0.04 0.04 0.04 0.04 0.03 0.02 0.02 0.02 0.01 0.01
0.04 0.07 0.04 0.03 0.03 0.03 0.03 0.04 0.05 0.06 0.08 0.08 0.07 0.04 0.03 0.03 0.02 0.03 0.04 0.04 0.04 0.04 0.05 0.04 0.04 0.04 0.03 0.03 0.02 0.02 0.02 0.03 0.03 0.04 0.04 0.04 0.05 0.04 0.03 0.02 0.02 0.02 0.01
MSLP
1026.78 1026.37 1025.52 1024.38 1023.17 1022.08 1021.23 1020.68 1020.43 1020.39 1020.46 1020.55 1020.60 1020.60 1020.54 1020.48 1020.44 1020.44 1020.47 1020.51 1020.52 1020.47 1020.36 1020.20 1020.03 1019.87 1019.75 1019.68 1019.64 1019.61 1019.53 1019.38 1019.14 1018.82 1018.46 1018.07 1017.71 1017.39 1017.12 1016.88 1016.66 1016.44 1016.22
1027.54 1027.06 1026.14 1024.94 1023.68 1022.55 1021.66 1021.08 1020.79 1020.71 1020.76 1020.83 1020.88 1020.88 1020.86 1020.84 1020.86 1020.92 1021.01 1021.09 1021.14 1021.12 1021.03 1020.88 1020.70 1020.53 1020.39 1020.28 1020.21 1020.13 1020.02 1019.83 1019.57 1019.25 1018.88 1018.51 1018.16 1017.86 1017.59 1017.34 1017.10 1016.84 1016.57
1028.40 1027.83 1026.83 1025.57 1024.27 1023.09 1022.18 1021.58 1021.26 1021.16 1021.19 1021.25 1021.29 1021.31 1021.31 1021.32 1021.37 1021.46 1021.58 1021.69 1021.76 1021.76 1021.67 1021.53 1021.34 1021.15 1020.99 1020.85 1020.73 1020.60 1020.44 1020.21 1019.93 1019.59 1019.24 1018.89 1018.57 1018.29 1018.05 1017.80 1017.55 1017.26 1016.94
1029.27 1028.61 1027.54 1026.24 1024.91 1023.73 1022.81 1022.21 1021.88 1021.77 1021.79 1021.84 1021.88 1021.89 1021.89 1021.91 1021.96 1022.05 1022.17 1022.28 1022.34 1022.34 1022.26 1022.12 1021.93 1021.74 1021.55 1021.38 1021.22 1021.04 1020.82 1020.56 1020.25 1019.90 1019.56 1019.24 1018.96 1018.71 1018.50 1018.28 1018.02 1017.72 1017.37
1030.05 1029.32 1028.21 1026.90 1025.59 1024.45 1023.57 1022.99 1022.68 1022.56 1022.56 1022.60 1022.62 1022.62 1022.60 1022.60 1022.62 1022.68 1022.77 1022.86 1022.90 1022.89 1022.81 1022.67 1022.49 1022.29 1022.09 1021.90 1021.70 1021.48 1021.22 1020.91 1020.57 1020.22 1019.88 1019.58 1019.33 1019.13 1018.95 1018.76 1018.52 1018.22 1017.86
1030.66 1029.89 1028.80 1027.54 1026.31 1025.25 1024.44 1023.92 1023.63 1023.53 1023.52 1023.53 1023.52 1023.48 1023.42 1023.37 1023.36 1023.37 1023.42 1023.46 1023.47 1023.44 1023.35 1023.21 1023.04 1022.84 1022.65 1022.44 1022.21 1021.96 1021.66 1021.32 1020.96 1020.59 1020.24 1019.95 1019.72 1019.55 1019.39 1019.23 1019.02 1018.74 1018.39
1031.03 1030.29 1029.28 1028.14 1027.04 1026.12 1025.42 1024.97 1024.73 1024.64 1024.61 1024.58 1024.53 1024.44 1024.33 1024.23 1024.16 1024.12 1024.12 1024.11 1024.09 1024.03 1023.93 1023.80 1023.63 1023.44 1023.25 1023.03 1022.79 1022.51 1022.18 1021.81 1021.42 1021.03 1020.67 1020.36 1020.13 1019.96 1019.81 1019.67 1019.49 1019.24 1018.93
1031.18 1030.52 1029.65 1028.69 1027.79 1027.03 1026.48 1026.12 1025.93 1025.84 1025.79 1025.72 1025.61 1025.47 1025.31 1025.16 1025.04 1024.95 1024.89 1024.85 1024.79 1024.71 1024.60 1024.45 1024.29 1024.11 1023.91 1023.69 1023.44 1023.13 1022.78 1022.39 1021.96 1021.54 1021.15 1020.82 1020.55 1020.35 1020.20 1020.05 1019.89 1019.68 1019.43
1031.15 1030.63 1029.95 1029.21 1028.52 1027.97 1027.56 1027.31 1027.17 1027.08 1026.99 1026.88 1026.71 1026.52 1026.32 1026.12 1025.97 1025.84 1025.76 1025.68 1025.59 1025.48 1025.35 1025.19 1025.01 1024.82 1024.62 1024.39 1024.12 1023.81 1023.44 1023.03 1022.58 1022.12 1021.69 1021.31 1020.99 1020.73 1020.53 1020.36 1020.20 1020.02 1019.83
1031.06 1030.70 1030.22 1029.71 1029.25 1028.89 1028.64 1028.48 1028.37 1028.28 1028.16 1027.99 1027.79 1027.55 1027.32 1027.10 1026.92 1026.79 1026.67 1026.57 1026.46 1026.32 1026.16 1025.98 1025.78 1025.56 1025.34 1025.09 1024.81 1024.49 1024.12 1023.69 1023.23 1022.75 1022.28 1021.84 1021.46 1021.12 1020.85 1020.62 1020.43 1020.26 1020.11
1030.99 1030.78 1030.51 1030.21 1029.96 1029.77 1029.64 1029.55 1029.48 1029.37 1029.22 1029.02 1028.78 1028.52 1028.27 1028.05 1027.87 1027.73 1027.61 1027.49 1027.35 1027.18 1026.99 1026.77 1026.53 1026.28 1026.02 1025.75 1025.46 1025.13 1024.77 1024.36 1023.90 1023.42 1022.92 1022.44 1021.98 1021.55 1021.18 1020.87 1020.61 1020.42 1020.28
1031.02 1030.95 1030.84 1030.72 1030.63 1030.57 1030.53 1030.50 1030.43 1030.32 1030.15 1029.92 1029.66 1029.40 1029.15 1028.94 1028.77 1028.63 1028.50 1028.36 1028.20 1028.00 1027.76 1027.50 1027.21 1026.92 1026.62 1026.33 1026.03 1025.72 1025.37 1024.99 1024.57 1024.12 1023.62 1023.11 1022.59 1022.08 1021.60 1021.18 1020.83 1020.57 1020.41
1031.19 1031.23 1031.24 1031.24 1031.25 1031.27 1031.29 1031.28 1031.22 1031.09 1030.91 1030.68 1030.42 1030.17 1029.93 1029.74 1029.57 1029.44 1029.30 1029.15 1028.96 1028.72 1028.44 1028.13 1027.79 1027.45 1027.13 1026.81 1026.51 1026.21 1025.91 1025.59 1025.23 1024.83 1024.37 1023.87 1023.31 1022.74 1022.16 1021.63 1021.16 1020.80 1020.56
1031.51 1031.61 1031.68 1031.75 1031.81 1031.86 1031.90 1031.89 1031.83 1031.70 1031.52 1031.31 1031.07 1030.83 1030.62 1030.44 1030.28 1030.14 1029.99 1029.81 1029.59 1029.32 1029.00 1028.64 1028.26 1027.89 1027.53 1027.20 1026.90 1026.64 1026.39 1026.14 1025.87 1025.56 1025.17 1024.71 1024.16 1023.55 1022.91 1022.26 1021.67 1021.18 1020.84
1031.93 1032.06 1032.15 1032.23 1032.29 1032.34 1032.36 1032.35 1032.29 1032.17 1032.02 1031.83 1031.63 1031.42 1031.23 1031.06 1030.90 1030.74 1030.56 1030.35 1030.09 1029.78 1029.43 1029.04 1028.64 1028.24 1027.86 1027.52 1027.24 1027.00 1026.81 1026.64 1026.47 1026.27 1025.98 1025.60 1025.11 1024.50 1023.82 1023.09 1022.39 1021.77 1021.29
1032.38 1032.52 1032.61 1032.66 1032.69 1032.71 1032.71 1032.69 1032.63 1032.55 1032.43 1032.29 1032.13 1031.97 1031.80 1031.63 1031.44 1031.25 1031.03 1030.78 1030.49 1030.15 1029.78 1029.38 1028.96 1028.55 1028.16 1027.82 1027.54 1027.33 1027.19 1027.09 1027.02 1026.93 1026.76 1026.49 1026.08 1025.53 1024.85 1024.09 1023.30 1022.57 1021.96
1032.80 1032.94 1033.01 1033.03 1033.02 1033.00 1032.98 1032.96 1032.92 1032.88 1032.82 1032.74 1032.63 1032.50 1032.35 1032.17 1031.96 1031.72 1031.46 1031.16 1030.84 1030.48 1030.10 1029.69 1029.28 1028.86 1028.47 1028.12 1027.84 1027.65 1027.53 1027.49 1027.49 1027.50 1027.45 1027.30 1027.00 1026.53 1025.91 1025.16 1024.34 1023.53 1022.81
1033.12 1033.28 1033.34 1033.33 1033.28 1033.24 1033.20 1033.19 1033.19 1033.20 1033.20 1033.19 1033.14 1033.05 1032.91 1032.71 1032.47 1032.18 1031.87 1031.53 1031.18 1030.81 1030.43 1030.04 1029.63 1029.23 1028.84 1028.48 1028.19 1027.98 1027.86 1027.84 1027.88 1027.96 1028.00 1027.96 1027.78 1027.43 1026.89 1026.20 1025.41 1024.58 1023.80
1033.33 1033.52 1033.58 1033.56 1033.50 1033.44 1033.41 1033.41 1033.46 1033.53 1033.61 1033.66 1033.66 1033.60 1033.47 1033.25 1032.98 1032.65 1032.29 1031.92 1031.54 1031.18 1030.81 1030.44 1030.06 1029.67 1029.28 1028.91 1028.59 1028.35 1028.20 1028.15 1028.20 1028.31 1028.41 1028.46 1028.39 1028.15 1027.74 1027.15 1026.42 1025.63 1024.83
1033.41 1033.65 1033.73 1033.72 1033.67 1033.62 1033.61 1033.65 1033.74 1033.87 1034.01 1034.12 1034.17 1034.14 1034.01 1033.78 1033.48 1033.12 1032.72 1032.33 1031.95 1031.59 1031.25 1030.91 1030.56 1030.19 1029.81 1029.43 1029.07 1028.78 1028.58 1028.48 1028.49 1028.59 1028.71 1028.81 1028.82 1028.70 1028.40 1027.93 1027.32 1026.60 1025.85
1033.37 1033.67 1033.81 1033.84 1033.81 1033.79 1033.81 1033.89 1034.03 1034.21 1034.40 1034.55 1034.64 1034.63 1034.50 1034.27 1033.95 1033.57 1033.16 1032.76 1032.38 1032.04 1031.73 1031.43 1031.12 1030.78 1030.41 1030.02 1029.64 1029.30 1029.04 1028.87 1028.82 1028.87 1028.97 1029.08 1029.14 1029.09 1028.90 1028.56 1028.07 1027.46 1026.80
1033.23 1033.61 1033.82 1033.90 1033.93 1033.96 1034.02 1034.14 1034.31 1034.52 1034.74 1034.92 1035.03 1035.03 1034.91 1034.68 1034.36 1033.97 1033.56 1033.17 1032.82 1032.51 1032.23 1031.97 1031.71 1031.41 1031.07 1030.69 1030.30 1029.92 1029.60 1029.37 1029.24 1029.22 1029.27 1029.36 1029.42 1029.42 1029.30 1029.06 1028.69 1028.20 1027.65
1033.01 1033.47 1033.76 1033.93 1034.02 1034.11 1034.22 1034.37 1034.57 1034.79 1035.02 1035.20 1035.31 1035.31 1035.20 1034.98 1034.66 1034.30 1033.91 1033.54 1033.22 1032.94 1032.71 1032.50 1032.28 1032.03 1031.74 1031.39 1031.01 1030.63 1030.28 1030.00 1029.80 1029.70 1029.68 1029.71 1029.75 1029.74 1029.67 1029.50 1029.22 1028.85 1028.40
1032.72 1033.27 1033.65 1033.91 1034.09 1034.25 1034.41 1034.59 1034.79 1035.01 1035.22 1035.38 1035.47 1035.47 1035.36 1035.15 1034.87 1034.53 1034.17 1033.84 1033.55 1033.32 1033.12 1032.96 1032.80 1032.60 1032.37 1032.08 1031.75 1031.39 1031.05 1030.74 1030.50 1030.34 1030.24 1030.20 1030.17 1030.14 1030.06 1029.92 1029.70 1029.41 1029.05
1032.38 1033.01 1033.49 1033.85 1034.13 1034.36 1034.57 1034.78 1034.98 1035.17 1035.35 1035.47 1035.53 1035.52 1035.41 1035.22 1034.96 1034.66 1034.35 1034.06 1033.80 1033.60 1033.45 1033.32 1033.21 1033.08 1032.91 1032.69 1032.43 1032.14 1031.83 1031.54 1031.28 1031.07 1030.91 1030.79 1030.69 1030.60 1030.49 1030.34 1030.15 1029.91 1029.62
1031.99 1032.70 1033.28 1033.75 1034.14 1034.45 1034.71 1034.93 1035.12 1035.28 1035.41 1035.48 1035.51 1035.47 1035.36 1035.18 1034.96 1034.70 1034.43 1034.18 1033.96 1033.79 1033.66 1033.56 1033.49 1033.41 1033.31 1033.18 1033.00 1032.79 1032.55 1032.30 1032.05 1031.81 1031.60 1031.42 1031.25 1031.09 1030.93 1030.76 1030.56 1030.35 1030.10
Thickness
5683 5684 5684 5687 5688 5690 5691 5692 5693 5693 5694 5694 5695 5695 5696 5696 5697 5699 5700 5701 5703 5704 5706 5707 5708 5709 5709 5710 5711 5712 5712 5713 5713 5714 5714 5715 5716 5716 5717 5718 5719 5719 5719
5678 5679 5680 5683 5684 5685 5687 5688 5688 5689 5689 5690 5690 5691 5691 5692 5693 5694 5695 5697 5698 5699 5701 5703 5704 5704 5705 5705 5706 5707 5707 5708 5708 5709 5710 5711 5711 5711 5712 5713 5714 5714 5714
5674 5675 5676 5678 5680 5681 5682 5683 5684 5684 5685 5685 5686 5686 5687 5687 5688 5690 5691 5692 5693 5694 5696 5697 5698 5698 5699 5700 5701 5702 5702 5703 5703 5705 5706 5707 5706 5706 5707 5708 5709 5709 5710
5669 5670 5671 5673 5675 5676 5677 5678 5679 5679 5680 5681 5681 5682 5682 5683 5684 5685 5686 5686 5688 5689 5691 5692 5693 5693 5694 5694 5695 5696 5697 5697 5699 5700 5702 5703 5702 5701 5702 5703 5704 5704 5705
5664 5665 5666 5668 5670 5671 5672 5673 5674 5674 5675 5675 5676 5677 5678 5678 5679 5679 5680 5681 5681 5683 5685 5686 5686 5687 5688 5688 5688 5689 5691 5692 5694 5696 5697 5697 5697 5696 5697 5697 5698 5699 5699
5658 5659 5661 5662 5664 5666 5667 5668 5668 5669 5670 5670 5671 5671 5672 5672 5672 5673 5674 5674 5675 5677 5679 5680 5680 5680 5681 5682 5682 5683 5684 5687 5690 5691 5691 5692 5691 5690 5691 5692 5693 5693 5694
5652 5653 5654 5656 5658 5660 5661 5662 5663 5663 5664 5664 5665 5665 5665 5666 5666 5666 5667 5668 5669 5670 5672 5673 5674 5674 5674 5675 5676 5676 5678 5680 5684 5685 5685 5685 5685 5685 5685 5686 5687 5688 5688
5645 5647 5648 5649 5651 5653 5654 5655 5656 5657 5658 5658 5658 5658 5659 5659 5659 5659 5660 5661 5662 5663 5665 5666 5666 5666 5667 5668 5669 5670 5671 5674 5676 5678 5678 5678 5678 5679 5679 5680 5681 5682 5682
5637 5640 5642 5642 5644 5645 5647 5648 5649 5650 5651 5652 5652 5651 5651 5652 5652 5651 5652 5653 5654 5655 5657 5658 5658 5659 5659 5660 5661 5663 5664 5667 5670 5670 5671 5671 5671 5672 5672 5673 5674 5675 5676
5630 5632 5634 5635 5637 5638 5640 5641 5642 5643 5644 5644 5644 5644 5644 5645 5644 5644 5644 5645 5646 5647 5648 5649 5650 5650 5651 5652 5653 5655 5657 5660 5662 5662 5663 5663 5664 5665 5665 5666 5667 5668 5669
5622 5624 5625 5627 5629 5630 5632 5632 5634 5635 5635 5636 5636 5637 5637 5637 5637 5636 5635 5636 5637 5638 5639 5640 5641 5641 5642 5643 5644 5646 5649 5652 5653 5653 5654 5654 5656 5657 5658 5658 5659 5660 5661
5614 5615 5616 5618 5620 5622 5624 5625 5625 5626 5627 5627 5628 5629 5630 5630 5629 5628 5627 5628 5628 5629 5629 5630 5631 5632 5634 5635 5636 5638 5641 5643 5644 5644 5645 5646 5648 5649 5650 5651 5652 5653 5653
5605 5605 5606 5609 5611 5613 5615 5616 5617 5617 5618 5618 5619 5620 5621 5622 5621 5620 5620 5619 5619 5620 5620 5620 5622 5623 5624 5625 5627 5629 5630 5633 5635 5635 5636 5638 5639 5641 5642 5643 5644 5645 5646
5596 5597 5598 5599 5602 5603 5605 5607 5607 5607 5608 5608 5609 5610 5611 5612 5612 5611 5612 5611 5611 5611 5611 5611 5612 5614 5615 5616 5617 5619 5620 5622 5624 5625 5626 5628 5630 5632 5633 5634 5635 5637 5638
5586 5587 5588 5590 5592 5594 5595 5596 5597 5598 5598 5598 5599 5600 5601 5602 5602 5602 5602 5602 5602 5602 5602 5602 5603 5604 5605 5606 5607 5608 5610 5612 5614 5615 5616 5618 5620 5622 5624 5625 5626 5628 5629
5576 5577 5578 5580 5581 5583 5585 5585 5586 5587 5587 5587 5588 5589 5590 5591 5592 5592 5592 5592 5592 5592 5592 5593 5593 5594 5594 5595 5597 5598 5599 5601 5603 5605 5606 5607 5609 5611 5613 5615 5617 5618 5620
5565 5567 5568 5570 5571 5573 5574 5575 5575 5576 5577 5577 5577 5578 5579 5580 5582 5583 5583 5582 5582 5582 5583 5583 5584 5584 5584 5585 5586 5587 5589 5590 5592 5594 5596 5597 5599 5600 5602 5605 5607 5609 5610
5554 5556 5558 5559 5560 5562 5562 5562 5563 5564 5565 5565 5566 5567 5568 5569 5571 5572 5573 5573 5572 5572 5572 5573 5574 5574 5575 5575 5575 5576 5578 5579 5581 5583 5584 5586 5588 5590 5592 5594 5596 5598 5601
5543 5545 5547 5548 5549 5550 5550 5550 5551 5552 5553 5553 5554 5555 5556 5558 5559 5561 5562 5562 5561 5561 5562 5562 5563 5564 5564 5563 5564 5565 5567 5568 5570 5572 5573 5575 5577 5579 5581 5583 5585 5587 5590
5532 5533 5536 5537 5538 5538 5539 5539 5539 5539 5540 5541 5542 5543 5544 5546 5548 5549 5550 5550 5550 5551 5551 5551 5551 5552 5552 5552 5552 5553 5554 5556 5558 5560 5562 5564 5566 5568 5570 5572 5574 5576 5578
5521 5523 5525 5526 5526 5527 5528 5528 5529 5528 5528 5529 5529 5530 5531 5533 5535 5537 5537 5538 5539 5540 5541 5540 5540 5540 5540 5540 5542 5542 5543 5545 5547 5549 5551 5553 5555 5557 5559 5561 5563 5565 5567
5512 5513 5514 5514 5515 5516 5516 5516 5516 5516 5516 5516 5517 5517 5518 5520 5522 5524 5525 5526 5527 5528 5528 5528 5528 5528 5529 5529 5532 5534 5535 5536 5537 5537 5539 5541 5543 5545 5547 5549 5551 5553 5555
5502 5502 5503 5503 5503 5504 5504 5503 5503 5503 5503 5504 5505 5505 5505 5507 5509 5510 5512 5513 5513 5515 5516 5516 5516 5518 5518 5518 5519 5523 5527 5532 5528 5527 5528 5530 5531 5533 5536 5538 5540 5541 5543
5491 5491 5490 5491 5491 5492 5492 5492 5493 5494 5494 5494 5494 5493 5493 5494 5495 5497 5498 5499 5500 5501 5502 5503 5504 5505 5506 5508 5508 5509 5513 5517 5518 5519 5518 5519 5520 5522 5524 5526 5528 5530 5532
5480 5479 5479 5478 5478 5479 5479 5480 5481 5482 5482 5481 5481 5481 5482 5481 5482 5483 5484 5485 5486 5487 5488 5489 5490 5491 5493 5495 5497 5498 5499 5501 5505 5508 5510 5509 5509 5510 5512 5514 5516 5518 5520
5469 5467 5467 5466 5466 5466 5466 5466 5468 5469 5469 5469 5469 5470 5470 5469 5469 5469 5470 5471 5472 5473 5474 5475 5477 5478 5479 5481 5483 5485 5488 5491 5493 5495 5497 5498 5499 5501 5501 5502 5504 5507 5509